CZ-4C DEB, 43418

Orbit data source: Space-Track

CZ-4C DEB, 43418 is space debris in LEO originally from a launch on Wed, 10 Dec 2014 UTC launched from the Jiuquan Satellite Launch Center, China (JSC). Debris objects in space refer to the collection of defunct objects orbiting the Earth. Examples of debris include non-operational satellites, rocket bodies, and fragments generated from explosions, collisions, or faulty payload assembly.

Loading next visibility...
Identifier
43418, 2014-080G
Orbit
LEO
Country
Flag of CNCN / PRC
Related business
Manufacturer
SAST
Mission
Spacecraft
Bus & Motor
Unknown
Mass
Unknown
Launch date (UTC)
2014-12-10 (11 years ago)
Launch vehicle
Unknown
Launch site
Jiuquan Satellite Launch Center, China (JSC)
Object type
Payload
Rocket body
Debris
Shape & HBR
Unknown shape, 0.1 m
Radar Cross Section
Small (<0.1 m²)

Expand to show TLE details & history
Last TLE update: 6 days ago

TLE from 6 days ago
0 CZ-4C DEB
1 43418U 14080G   26057.21303759  .00000092  00000-0  20370-3 0  9999
2 43418  63.3898 248.3633 0371866   8.7478 351.9794 13.45278622530098
Epoch: 2026-02-26T05:06Z
TLE epoch observation values (Epoch: 2026-02-26T05:06:46.447Z)
Latitude
-0.00005°
Longitude
15.60265°
Altitude
816.648 km
Speed
7.581 km/s
True Right ascension
16h 33m 27s
True Declination
0° 00' 00"
Sunlit
Object was in daylight at epoch
Visualization orbit readout
Latitude
Unknown
Longitude
Unknown
Altitude
Unknown
Speed
Unknown
Apparent Right ascension
Unknown
Apparent Declination
Unknown
Sunlit
N/A
Visualization observer readout
Local Sidereal Time
22:57:59
Azimuth
Unknown
Elevation
Unknown
Doppler factor
Unknown
Orbital elements
Apogee altitude
1,366.168 km
Perigee altitude
810.849 km
Semi-major axis
7,466.646 km
Eccentricity
0.03719
Inclination
63.3898°
RAAN
248.3633°
Arg. of periapsis
8.7478°
True anomaly
351.35621°
Mean anomaly
351.9794°
Eccentric anomaly
351.67075°
Mean motion
3.36399 °/min
Orbital period
107.02 mins
BSTAR
0.0002037
Loading maneuver chart data...
Computing Atmospheric mass density...
Loading historical data...
Loading historical data...
Loading historical data...
Loading historical data...
Loading historical data...
Loading historical data...
Loading historical data...

Documentation

Showing up to 5 results
|